Regional Weather Roundup
Issued by NWS

Home | Current Version | Previous Version | Text Only | Print | Product List | Glossary On
Versions: 1 2 3 4 5 6 7 8 9 10 11 12 13 14 15 16 17 18 19 20 21 22 23 24 25 26 27 28 29 30 31 32 33 34 35 36 37 38 39 40 41 42 43 44 45 46 47 48 49 50
000
ASUS43 KMKX 182121
RWRWI

WISCONSIN REGIONAL WEATHER ROUNDUP
NATIONAL WEATHER SERVICE MILWAUKEE/SULLIVAN WI
300 PM CST THU DEC 18 2014

NOTE: "FAIR" INDICATES FEW OR NO CLOUDS BELOW 12,000 FEET WITH NO
SIGNIFICANT WEATHER AND/OR OBSTRUCTIONS TO VISIBILITY.

WIZ001-002-006>008-014>016-023>028-182200-
NORTHWEST WISCONSIN

CITY           SKY/WX    TMP DP  RH WIND       PRES   REMARKS
SUPERIOR ARPT  CLOUDY    28  20  72 CALM      30.27R
ASHLAND        CLOUDY    25  18  74 CALM      30.27S
HAYWARD        CLOUDY    23  17  78 SW3       30.24R
SIREN          CLOUDY    23  19  85 SW3       30.26R
CUMBERLAND     CLOUDY    21  19  93 CALM      30.23S
RICE LAKE      CLOUDY    23  20  87 SW3       30.26S
CHETEK         CLOUDY    23  20  89 CALM      30.25S
LADYSMITH      CLOUDY    24  21  87 S3        30.25S
EAU CLAIRE     CLOUDY    24  18  77 CALM      30.25S
MENOMONIE      CLOUDY    24  19  81 CALM      30.26S
NEW RICHMOND   CLOUDY    22  19  88 CALM      30.26S
OSCEOLA        CLOUDY    23  19  82 CALM      30.29S
$$

WIZ003>005-009-010-017-018-182200-
NORTH CENTRAL WISCONSIN

CITY           SKY/WX    TMP DP  RH WIND       PRES   REMARKS
MANITOWISH WTR CLEAR     24  16  70 CALM      30.20S
ARBOR VITAE    CLEAR     25  17  70 CALM      30.20S
WOODRUFF       CLEAR     25  17  70 CALM      30.20S
RHINELANDER    CLEAR     24  15  68 W3        30.19S
EAGLE RIVER    CLEAR     25  15  66 CALM      30.19R
LAND O LAKES   CLEAR     24  19  79 CALM      30.20S
PHILLIPS       CLOUDY    22  17  81 CALM      30.21S
TOMAHAWK       CLOUDY    23  17  78 CALM      30.21S
MEDFORD        CLOUDY    22  18  84 SE3       30.21S
MERRILL        CLEAR     25  18  75 CALM      30.22R
$$

WIZ029-030-035-036-043>047-182200-
CENTRAL WISCONSIN

CITY           SKY/WX    TMP DP  RH WIND       PRES   REMARKS
WAUSAU         CLOUDY    26  17  68 CALM      30.21S
MOSINEE        CLOUDY    25  21  86 CALM      30.23S
MARSHFIELD     CLOUDY    25  19  78 SW3       30.22S
STEVENS POINT  CLOUDY    24  17  76 CALM      30.23S
WAUPACA        CLOUDY    29  20  67 CALM      30.24S
WAUTOMA        CLOUDY    27  22  81 N3        30.24S
WISC RAPIDS    CLOUDY    25  19  78 CALM      30.24S
CAMP DOUGLAS   CLOUDY    25  25 100 N1        30.24S
$$

WIZ011>013-019>022-031-037>040-048>050-182200-
NORTHEAST WISCONSIN

CITY           SKY/WX    TMP DP  RH WIND       PRES   REMARKS
ANTIGO         CLEAR     26  17  68 CALM      30.19S
SHAWANO        CLEAR     33  19  56 CALM      30.23R
OCONTO         CLEAR     30  19  64 CALM      30.23S
STURGEON BAY   CLEAR     27  16  63 N9        30.25R WCI  17
GREEN BAY      CLEAR     28  19  69 CALM      30.24S
MANITOWOC      CLOUDY    29  23  78 N9        30.23S WCI  20
APPLETON       MOCLDY    27  18  69 N7        30.23S WCI  19
CLINTONVILLE   CLEAR     30  18  59 CALM      30.23S
OSHKOSH        CLOUDY    27  19  72 N7        30.23S WCI  19
$$

WIZ032>034-041-042-053>061-182200-
SOUTHWEST WISCONSIN

CITY           SKY/WX    TMP DP  RH WIND       PRES   REMARKS
LA CROSSE      CLOUDY    26  18  71 CALM      30.26S
SPARTA         CLOUDY    25  19  78 CALM      30.25F
VIROQUA        CLOUDY    23  20  87 CALM      30.21S
BOSCOBEL       CLOUDY    28  17  63 CALM      30.26S
PRAIRIE DU CHI CLOUDY    28  17  64 CALM      30.25S
PLATTEVILLE    CLOUDY    26  19  77 CALM      30.24R
$$

WIZ056-057-062-063-064-067-068-182200-
SOUTH CENTRAL WISCONSIN

CITY           SKY/WX    TMP DP  RH WIND       PRES   REMARKS
REEDSBURG      CLOUDY    25  20  80 N3        30.23S
BARABOO/DELLS  CLOUDY    26  19  76 CALM      30.22S
LONE ROCK      NOT AVBL
MINERAL POINT  CLOUDY    27  19  74 CALM      30.22R
MADISON        CLOUDY    27  21  78 N6        30.22S WCI  20
MIDDLETON      CLOUDY    28  22  77 NW5       30.23R WCI  23
WATERTOWN      CLOUDY    27  25  94 N6        30.22R WCI  20
MONROE         CLOUDY    27  19  74 CALM      30.22R
JANESVILLE     CLOUDY    27  21  80 CALM      30.22S
$$

WIZ051-052-058>065-066-070>072-182200-
SOUTHEAST WISCONSIN

CITY           SKY/WX    TMP DP  RH WIND       PRES   REMARKS
MILWAUKEE      CLOUDY    29  23  78 NW7       30.22R WCI  22
WAUKESHA       CLOUDY    25  25 100 NW7       30.22S WCI  17
MILWAUKEE/TIMM CLOUDY    28  25  86 NW6       30.23S WCI  22
RACINE         CLOUDY    28  23  81 NW7       30.24R WCI  21
BURLINGTON     CLOUDY    26  22  84 N6        30.22S WCI  19
KENOSHA        CLOUDY    28  21  75 NW7       30.22R WCI  21
FOND DU LAC    CLOUDY    28  19  69 N8        30.23S WCI  20
SHEBOYGAN      CLOUDY    28  21  75 N8        30.22S WCI  20
WEST BEND      CLOUDY    28  21  74 NW5       30.21S WCI  23
JUNEAU         CLOUDY    26  22  85 NW7       30.23S WCI  19
$$

LSZ147-162-182200-
LAKE SUPERIOR

STATION/POSITION TIME  TEMP    WIND        PRES    WAVE
                       AIR SEA DIR/SP/G            HT/PER
                 (UTC) (F)     (DEG/KT/KT) (MB)    (FT/S)
DEVILS ISLAND    2100   29     110/  7/  8 1026.1S
PORT WING        2000   29     100/  4/  7 1024.7F
SAXON HARBOR     2040   28      20/  2/  5 1024.7F
$$

LMZ867-665-643>646-182200-
LAKE MICHIGAN

STATION/POSITION TIME  TEMP    WIND        PRES    WAVE
                       AIR SEA DIR/SP/G            HT/PER
                 (UTC) (F)     (DEG/KT/KT) (MB)    (FT/S)
CHAMBERS ISLAND  2000   28      20/  9/ 11 1024.0S
NORTHPORT PIER   2000   27      10/  8/ 11 1024.0S
SISTER BAY       2028          350/ 12/ 15   N/A
ALGOMA LAKESHORE 1914           30/  7/ 10   N/A
KEWAUNEE LAKESHO 2000   28     320/  8/ 10 1022.6F
SHEBOYGAN LAKESH 2100   28 34  330/ 10/ 11 1024.6R
PORT WASHINGTON  2000   29     310/  5/  8 1024.0
MILWAUKEE LAKESH 2100   29     310/  7/ 10   N/A
KENOSHA   LAKESH 2100   28     320/  9/ 11 1023.4S
$$

TC  - TEMPERATURE IN CELSIUS
VSB - VISIBILITY IN STATUTE MILES
WCI - WIND CHILL INDEX
HX  - HEAT INDEX



USA.gov is the U.S. government's official web portal to all federal, state and local government web resources and services.